Tracking 33750 objects as of 15-Apr-2026
HD Live streaming from Space Station
objects crossing your sky now

ONEWEB-0023

Track ONEWEB-0023 now!
10-day predictions
ONEWEB-0023 is classified as:


NORAD ID: 45136
Int'l Code: 2020-008F
Perigee: 1,227.2 km
Apogee: 1,230.5 km
Inclination: 87.9 °
Period: 109.9 minutes
Semi major axis: 7599 km
RCS: Unknown
Launch date: February 6, 2020
Source: United Kingdom (UK)
Launch site: TYURATAM MISSILE AND SPACE COMPLEX (TTMTR)
Your satellite tracking list
Your tracking list is empty




NASA's NSSDC Master Catalog

Two Line Element Set (TLE):
1 45136U 20008F   26105.22970784  .00000711  00000-0  19990-2 0  9991
2 45136  87.8859  48.7909 0002118  86.8703 273.2667 13.10373553299832
Source of the keplerian elements: AFSPC